TimeCDT,TemperatureF,Dew PointF,Humidity,Sea Level PressureIn,VisibilityMPH,Wind Direction,Wind SpeedMPH,Gust SpeedMPH,PrecipitationIn,Events,Conditions,WindDirDegrees,DateUTC
12:15 AM,47.3,44.6,90,30.23,10.0,North,3.5,-,N/A,,Unknown,350,2013-04-21 05:15:00
12:35 AM,47.5,44.4,89,30.23,10.0,Calm,Calm,-,N/A,,Unknown,0,2013-04-21 05:35:00
12:55 AM,47.5,44.6,90,30.22,10.0,Calm,Calm,-,N/A,,Unknown,0,2013-04-21 05:55:00
1:15 AM,47.5,44.6,90,30.21,10.0,Calm,Calm,-,N/A,,Unknown,0,2013-04-21 06:15:00
1:35 AM,46.9,43.7,88,30.21,10.0,Calm,Calm,-,N/A,,Unknown,0,2013-04-21 06:35:00
4:15 AM,44.6,41.5,89,30.19,10.0,Calm,Calm,-,N/A,,Unknown,0,2013-04-21 09:15:00
4:35 AM,44.6,41.4,88,30.20,10.0,Calm,Calm,-,N/A,,Unknown,0,2013-04-21 09:35:00
4:55 AM,43.9,41.0,90,30.21,10.0,Calm,Calm,-,N/A,,Unknown,0,2013-04-21 09:55:00
5:15 AM,43.7,41.0,90,30.21,10.0,Calm,Calm,-,N/A,,Unknown,0,2013-04-21 10:15:00
5:35 AM,44.8,41.0,87,30.21,10.0,Calm,Calm,-,N/A,,Unknown,0,2013-04-21 10:35:00
5:55 AM,44.2,40.6,87,30.21,10.0,Calm,Calm,-,N/A,,Unknown,0,2013-04-21 10:55:00
6:15 AM,43.9,40.5,88,30.21,10.0,Calm,Calm,-,N/A,,Unknown,0,2013-04-21 11:15:00
6:35 AM,43.7,40.8,90,30.21,10.0,Calm,Calm,-,N/A,,Unknown,0,2013-04-21 11:35:00
6:55 AM,42.8,40.1,90,30.21,10.0,Calm,Calm,-,N/A,,Unknown,0,2013-04-21 11:55:00
7:15 AM,45.0,41.9,89,30.22,10.0,Calm,Calm,-,N/A,,Unknown,0,2013-04-21 12:15:00
7:35 AM,47.5,43.0,84,30.23,10.0,Calm,Calm,-,N/A,,Unknown,0,2013-04-21 12:35:00
7:55 AM,50.0,42.8,76,30.23,10.0,Calm,Calm,-,N/A,,Unknown,0,2013-04-21 12:55:00
8:15 AM,52.7,43.5,71,30.23,10.0,NE,3.5,-,N/A,,Unknown,50,2013-04-21 13:15:00
8:35 AM,55.2,43.2,64,30.23,10.0,East,6.9,-,N/A,,Unknown,80,2013-04-21 13:35:00
8:55 AM,57.4,44.6,62,30.23,10.0,ENE,4.6,-,N/A,,Unknown,70,2013-04-21 13:55:00
9:15 AM,59.5,43.9,56,30.23,10.0,East,5.8,-,N/A,,Unknown,80,2013-04-21 14:15:00
9:35 AM,61.5,44.2,53,30.23,10.0,ENE,6.9,-,N/A,,Unknown,60,2013-04-21 14:35:00
9:55 AM,63.9,41.9,45,30.24,10.0,ENE,5.8,-,N/A,,Unknown,60,2013-04-21 14:55:00
10:15 AM,65.5,41.0,41,30.25,10.0,East,9.2,-,N/A,,Unknown,80,2013-04-21 15:15:00
10:35 AM,66.9,39.9,37,30.25,10.0,East,5.8,-,N/A,,Unknown,100,2013-04-21 15:35:00
10:55 AM,67.8,39.6,36,30.25,10.0,East,9.2,-,N/A,,Unknown,80,2013-04-21 15:55:00
11:15 AM,68.5,38.3,33,30.25,10.0,East,8.1,-,N/A,,Unknown,90,2013-04-21 16:15:00
11:35 AM,70.0,38.8,32,30.25,10.0,East,9.2,-,N/A,,Unknown,100,2013-04-21 16:35:00
11:55 AM,69.6,37.8,31,30.23,10.0,ENE,5.8,-,N/A,,Unknown,60,2013-04-21 16:55:00
12:15 PM,70.3,39.4,32,30.23,10.0,NE,10.4,-,N/A,,Unknown,40,2013-04-21 17:15:00
12:35 PM,70.2,38.1,31,30.22,10.0,SE,8.1,-,N/A,,Unknown,140,2013-04-21 17:35:00
12:55 PM,71.6,39.6,31,30.21,10.0,Calm,Calm,-,N/A,,Unknown,0,2013-04-21 17:55:00
1:15 PM,72.3,38.3,29,30.20,10.0,East,8.1,-,N/A,,Clear,90,2013-04-21 18:15:00
1:35 PM,72.7,39.4,30,30.19,10.0,ESE,8.1,-,N/A,,Clear,110,2013-04-21 18:35:00
1:55 PM,73.2,38.3,28,30.18,10.0,ESE,8.1,-,N/A,,Clear,110,2013-04-21 18:55:00
2:15 PM,73.4,39.0,29,30.18,10.0,East,5.8,-,N/A,,Clear,100,2013-04-21 19:15:00
2:35 PM,73.9,39.2,28,30.17,10.0,NE,6.9,-,N/A,,Clear,50,2013-04-21 19:35:00
2:55 PM,73.9,37.9,27,30.16,10.0,ENE,8.1,-,N/A,,Clear,60,2013-04-21 19:55:00
3:15 PM,74.8,38.3,27,30.16,10.0,ESE,3.5,-,N/A,,Clear,110,2013-04-21 20:15:00
3:35 PM,75.4,37.0,25,30.15,10.0,SE,4.6,-,N/A,,Clear,130,2013-04-21 20:35:00
3:55 PM,74.8,37.8,26,30.14,10.0,SSE,3.5,-,N/A,,Clear,160,2013-04-21 20:55:00
4:15 PM,75.6,39.0,27,30.13,10.0,ESE,5.8,-,N/A,,Clear,110,2013-04-21 21:15:00
4:35 PM,75.9,38.1,26,30.13,10.0,Calm,Calm,-,N/A,,Clear,0,2013-04-21 21:35:00
4:55 PM,75.4,38.5,26,30.13,10.0,SE,4.6,-,N/A,,Clear,130,2013-04-21 21:55:00
5:15 PM,75.6,37.9,26,30.13,10.0,Calm,Calm,-,N/A,,Clear,0,2013-04-21 22:15:00
5:35 PM,75.4,39.9,28,30.13,10.0,SE,4.6,-,N/A,,Clear,140,2013-04-21 22:35:00
5:55 PM,75.2,39.4,27,30.13,10.0,East,5.8,-,N/A,,Clear,90,2013-04-21 22:55:00
6:15 PM,74.8,39.4,28,30.13,10.0,ENE,3.5,-,N/A,,Clear,70,2013-04-21 23:15:00
6:35 PM,73.9,41.2,31,30.13,10.0,East,3.5,-,N/A,,Clear,80,2013-04-21 23:35:00
6:55 PM,72.7,42.6,34,30.14,10.0,ENE,3.5,-,N/A,,Clear,70,2013-04-21 23:55:00
7:15 PM,70.9,46.9,42,30.14,10.0,Calm,Calm,-,N/A,,Clear,0,2013-04-22 00:15:00
7:35 PM,65.7,53.4,65,30.14,10.0,Calm,Calm,-,N/A,,Clear,0,2013-04-22 00:35:00
7:55 PM,62.6,53.6,72,30.15,10.0,Calm,Calm,-,N/A,,Clear,0,2013-04-22 00:55:00
8:15 PM,60.3,53.4,78,30.16,10.0,Calm,Calm,-,N/A,,Clear,0,2013-04-22 01:15:00
8:35 PM,60.1,53.8,80,30.16,10.0,Calm,Calm,-,N/A,,Unknown,0,2013-04-22 01:35:00
8:55 PM,58.1,52.9,83,30.16,10.0,Calm,Calm,-,N/A,,Unknown,0,2013-04-22 01:55:00
9:15 PM,57.0,52.0,83,30.17,10.0,Calm,Calm,-,N/A,,Unknown,0,2013-04-22 02:15:00
9:35 PM,57.6,52.5,83,30.17,10.0,Calm,Calm,-,N/A,,Unknown,0,2013-04-22 02:35:00
9:55 PM,58.5,51.8,79,30.18,10.0,Calm,Calm,-,N/A,,Unknown,0,2013-04-22 02:55:00
10:15 PM,56.3,50.7,82,30.17,10.0,Calm,Calm,-,N/A,,Unknown,0,2013-04-22 03:15:00
10:35 PM,55.9,51.4,85,30.17,10.0,Calm,Calm,-,N/A,,Clear,0,2013-04-22 03:35:00
10:55 PM,54.9,50.7,86,30.17,10.0,Calm,Calm,-,N/A,,Clear,0,2013-04-22 03:55:00
11:15 PM,53.1,49.6,88,30.17,10.0,Calm,Calm,-,N/A,,Clear,0,2013-04-22 04:15:00
11:35 PM,52.7,49.5,89,30.16,10.0,Calm,Calm,-,N/A,,Clear,0,2013-04-22 04:35:00
11:55 PM,51.8,48.6,89,30.16,10.0,Calm,Calm,-,N/A,,Clear,0,2013-04-22 04:55:00